Погода в Шовхал-Бердах

Россия / Чеченская Республика     43°06′45″N   46°19′11″E
темп.,
°C
ветер,
м/с
пор.,
м/с
влажн.,
%
обл.,
%
осадки,
мм/ч
давл.,
гПа
погр.,
м
23 апреля, пт
пт2300:00+7сз129199 0.0 1021189
03:00+6з1395100 0.3 1023365
06:00+6з3796100 1.1 1024735
09:00+6зюз2692100 2.3 1025844
12:00+9зюз357583 0.9 1025836
15:00+13сз345225 0.9 10221489
18:00+11с11667 0.0 102342
21:00+8ююв2274100 0.0 102325
24 апреля, сб
сб2400:00+7ююв32740 0.0 102128
03:00+7ю32670 0.0 101827
06:00+8ю225857 0.0 101927
09:00+15с21448 0.0 1017602
12:00+17ссз42465 0.0 10171208
15:00+16сз4451100 0.0 10181410
18:00+12с127197 0.0 1020111
21:00+11ю017889 0.1 102121
25 апреля, вс
вс2500:00+10юз018044 0.0 102010
03:00+8ю1186100 0.0 102112
06:00+8з118691 0.0 102272
09:00+12с226678 0.0 1019725
12:00+15ссв326182 0.0 10171068
15:00+14ссв3263100 0.0 1016924
18:00+12с22687 0.0 1015149
21:00+10юв1176100 0.0 101315
26 апреля, пн
пн2600:00+9зюз1177100 0.0 101227
03:00+7ююз228487 0.0 101227
06:00+7з1283100 0.0 101372
09:00+14ссз216090 0.0 1011471
12:00+18с434913 0.0 1008856
15:00+15с3262100 0.0 1008737
18:00+12ссв1178100 0.1 1009197
21:00+9ссз119099 0.1 1012119
27 апреля, вт
вт2700:00+9ююз1195100 1.9 101392
03:00+8ссз2299100 9.4 1015226
06:00+7ссз2398100 0.9 1016285
09:00+7сз1297100 1.8 1018335
12:00+6ссз1196100 4.8 1018407
15:00+7св119596 6.3 1017239
18:00+7с1295100 0.1 1017181
21:00+7ссв1199100 0.1 1019118